STARLINK-35059

Last updated on Thu Oct 02 2025 00:02:05 GMT+0000 (Coordinated Universal Time)

1 65454U 25194W 25274.50002315 .00201921 00000+0 12862-2 0 9996 2 65454 97.5917 127.6320 0001637 79.8402 269.7772 15.75836659 5743

Satellite not in orbit

STARLINK-35059